User: anonymous
Location: Cypress Hills Dark-Sky Preserve - CHICO
(49.6176°N, 110.2634°W)
Time: 23:29:16
(UTC-06:00)
Language:

SPOT 5 - Orbit

View from above orbital plane
View from above orbital plane
View from above satellite
View from above satellite

Ground track
Ground track

The orbit data is extracted from the following two-line orbital elements,

1 27421U 02021A   14105.71879801  .00000317  00000-0  16851-3 0  4689
2 27421 098.5690 170.8152 0001359 091.5805 005.0864 14.20101031619456
Epoch (UTC): 15 April 2014 17:15:04
Eccentricity: 0.0001359
inclination: 98.5690°
perigee height: 824 km
apogee height: 826 km
right ascension of ascending node: 170.8152°
argument of perigee: 91.5805°
revolutions per day: 14.20101031
mean anomaly at epoch: 5.0864°
orbit number at epoch: 61945

The dashed part of the orbit path shows where the satellite is in the earth's shadow,  

DLR